Regional Weather Roundup
Issued by NWS

Home | Current Version | Previous Version | Text Only | Print | Product List | Glossary Off
Versions: 1 2 3 4 5 6 7 8 9 10 11 12 13 14 15 16 17 18 19 20 21 22 23 24 25 26 27 28 29 30 31 32 33 34 35 36 37 38 39 40 41 42 43 44 45 46 47 48 49 50

876
ASUS43 KBIS 292310
RWRND

NORTH DAKOTA REGIONAL WEATHER ROUNDUP
NATIONAL WEATHER SERVICE BISMARCK ND
600 PM CDT FRI JUL 29 2016

NOTE: "FAIR" INDICATES FEW OR NO CLOUDS BELOW 12,000 FEET WITH NO
SIGNIFICANT WEATHER AND/OR OBSTRUCTIONS TO VISIBILITY.


NDZ001>003-009>011-017-300000-
NORTHWEST NORTH DAKOTA

CITY           SKY/WX    TMP DP  RH WIND       PRES   REMARKS
WILLISTON      CLOUDY    80  47  31 CALM      29.98F
MINOT          MOSUNNY   83  55  38 SW7       29.98F
MINOT AFB      MOSUNNY   79  58  48 SW1       29.96F
$$

NDZ018>021-031>035-040>046-300000-
SOUTHWEST NORTH DAKOTA

CITY           SKY/WX    TMP DP  RH WIND       PRES   REMARKS
BISMARCK       MOSUNNY   80  61  52 S10       29.99F
DICKINSON      MOSUNNY   78  52  40 S6        29.98F
GARRISON         N/A     78  60  53 CALM      29.99F
HETTINGER ARPT PTSUNNY   85  50  29 SW9       30.00F
$$

NDZ004>008-012>016-024-026-027-054-300000-
NORTHEAST NORTH DAKOTA

CITY           SKY/WX    TMP DP  RH WIND       PRES   REMARKS
GRAND FORKS    PTSUNNY   79  53  40 CALM      30.00F
GRND FRKS AFB  MOSUNNY   78  54  42 SW6       30.01F
DEVILS LAKE    SUNNY     76  60  57 SE7       30.02F
$$

NDZ022-023-025-028>030-036>039-047>053-300000-
SOUTHEAST NORTH DAKOTA

CITY           SKY/WX    TMP DP  RH WIND       PRES   REMARKS
FARGO          PTSUNNY   80  58  46 W6        30.01F
JAMESTOWN      MOSUNNY   76  62  62 S8        30.02F
$$





USA.gov is the U.S. government's official web portal to all federal, state and local government web resources and services.